Location: Unspecified
(41.5000°N, 0.0000°E)
Time: 18:19:31
(UTC+00:00)

A-11 Canister half - Pass Details

Date: 02 July 2019
Orbit: 1526 x 1683 km, 47.3° (Epoch: 22 August)

Event Time Altitude Azimuth Distance (km) Brightness Sun altitude
Exits shadow 01:18:33 36° 204° (SSW) 2,321 9.4 -23.2°
Maximum altitude 01:22:41 60° 142° (SE) 1,764 9.1 -22.9°
Drops below altitude 10° 01:31:53 10° 66° (ENE) 3,728 11.6 -22.3°
Sets 01:34:57 0° 63° (ENE) 4,700 12.3 -22.1°
